Time,TemperatureF,DewpointF,PressureIn,WindDirection,WindDirectionDegrees,WindSpeedMPH,WindSpeedGustMPH,Humidity,HourlyPrecipIn,Conditions,Clouds,dailyrainin,SoftwareType,DateUTC
2013-02-14 00:00:00,40.6,35.1,30.03,NNE,21,1.3,5.1,80,0.00,,,0.00,Meteorologica,2013-02-14 05:00:00,
2013-02-14 00:05:00,40.7,35.2,30.03,WNW,289,0.0,2.6,80,0.00,,,0.00,Meteorologica,2013-02-14 05:05:00,
2013-02-14 00:10:00,40.7,35.3,30.03,NW,313,0.6,3.0,81,0.00,,,0.00,Meteorologica,2013-02-14 05:10:00,
2013-02-14 00:15:00,40.8,35.4,30.03,NNE,25,0.1,2.2,80,0.00,,,0.00,Meteorologica,2013-02-14 05:15:00,
2013-02-14 00:20:00,40.7,35.3,30.03,NW,319,1.7,2.5,81,0.00,,,0.00,Meteorologica,2013-02-14 05:20:00,
2013-02-14 00:25:00,40.7,35.4,30.03,NW,311,0.0,2.6,81,0.00,,,0.00,Meteorologica,2013-02-14 05:25:00,
2013-02-14 00:30:00,40.6,35.3,30.02,WNW,300,0.0,3.0,81,0.00,,,0.00,Meteorologica,2013-02-14 05:30:00,
2013-02-14 00:36:00,40.7,35.7,30.02,WNW,300,0.0,1.2,82,0.00,,,0.00,Meteorologica,2013-02-14 05:36:00,
2013-02-14 00:41:00,40.5,35.4,30.02,WNW,299,0.4,0.0,81,0.00,,,0.00,Meteorologica,2013-02-14 05:41:00,
2013-02-14 00:46:00,40.6,35.3,30.02,North,11,0.9,2.9,81,0.00,,,0.00,Meteorologica,2013-02-14 05:46:00,
2013-02-14 00:51:00,40.5,35.4,30.02,WNW,297,0.0,3.2,81,0.00,,,0.00,Meteorologica,2013-02-14 05:51:00,
2013-02-14 00:56:00,40.4,35.3,30.02,WNW,297,0.0,0.0,81,0.00,,,0.00,Meteorologica,2013-02-14 05:56:00,
2013-02-14 01:01:00,40.4,35.2,30.02,WNW,297,0.0,0.0,81,0.00,,,0.00,Meteorologica,2013-02-14 06:01:00,
2013-02-14 01:06:00,40.4,35.3,30.02,WNW,297,0.0,0.0,81,0.00,,,0.00,Meteorologica,2013-02-14 06:06:00,
2013-02-14 01:11:00,40.6,35.6,30.03,WNW,297,0.0,0.0,82,0.00,,,0.00,Meteorologica,2013-02-14 06:11:00,
2013-02-14 01:17:00,40.4,35.3,30.02,NW,320,0.1,0.0,82,0.00,,,0.00,Meteorologica,2013-02-14 06:17:00,
2013-02-14 01:22:00,40.3,35.2,30.02,NNE,14,2.6,3.8,82,0.00,,,0.00,Meteorologica,2013-02-14 06:22:00,
2013-02-14 01:27:00,40.5,35.3,30.03,WNW,290,0.2,3.6,81,0.00,,,0.00,Meteorologica,2013-02-14 06:27:00,
2013-02-14 01:32:00,40.6,35.4,30.03,WSW,256,0.0,2.6,81,0.00,,,0.00,Meteorologica,2013-02-14 06:32:00,
2013-02-14 01:37:00,40.6,35.5,30.03,West,259,2.7,0.0,81,0.00,,,0.00,Meteorologica,2013-02-14 06:37:00,
2013-02-14 01:42:00,40.5,35.5,30.03,NW,319,1.6,5.3,82,0.00,,,0.00,Meteorologica,2013-02-14 06:42:00,
2013-02-14 01:47:00,40.4,35.3,30.03,NNW,344,1.5,4.5,82,0.00,,,0.00,Meteorologica,2013-02-14 06:47:00,
2013-02-14 01:52:00,40.5,35.2,30.03,NNE,17,3.0,5.0,81,0.00,,,0.00,Meteorologica,2013-02-14 06:52:00,
2013-02-14 01:57:00,40.5,35.3,30.03,West,268,0.0,4.5,81,0.00,,,0.00,Meteorologica,2013-02-14 06:57:00,
2013-02-14 02:02:00,40.5,35.3,30.03,WNW,286,0.1,3.3,81,0.00,,,0.00,Meteorologica,2013-02-14 07:02:00,
2013-02-14 02:07:00,40.5,35.3,30.03,WNW,293,2.2,3.5,81,0.00,,,0.00,Meteorologica,2013-02-14 07:07:00,
2013-02-14 02:12:00,40.4,35.1,30.03,WNW,299,2.2,4.3,81,0.00,,,0.00,Meteorologica,2013-02-14 07:12:00,
2013-02-14 02:17:00,40.4,34.9,30.03,WNW,290,2.4,3.8,80,0.00,,,0.00,Meteorologica,2013-02-14 07:17:00,
2013-02-14 02:22:00,40.5,34.9,30.03,WNW,295,2.8,5.0,80,0.00,,,0.00,Meteorologica,2013-02-14 07:22:00,
2013-02-14 02:27:00,40.4,34.7,30.03,North,5,0.3,5.1,79,0.00,,,0.00,Meteorologica,2013-02-14 07:27:00,
2013-02-14 02:32:00,40.5,34.7,30.03,WNW,293,1.7,5.8,79,0.00,,,0.00,Meteorologica,2013-02-14 07:32:00,
2013-02-14 02:37:00,40.3,34.6,30.03,WNW,289,0.0,5.3,79,0.00,,,0.00,Meteorologica,2013-02-14 07:37:00,
2013-02-14 02:42:00,40.4,34.8,30.03,WNW,285,1.2,1.9,80,0.00,,,0.00,Meteorologica,2013-02-14 07:42:00,
2013-02-14 02:47:00,40.4,34.8,30.03,WNW,298,0.8,3.2,80,0.00,,,0.00,Meteorologica,2013-02-14 07:47:00,
2013-02-14 02:52:00,40.3,34.7,30.03,North,354,0.9,1.8,80,0.00,,,0.00,Meteorologica,2013-02-14 07:52:00,
2013-02-14 02:57:00,40.2,34.7,30.03,North,352,2.3,3.5,80,0.00,,,0.00,Meteorologica,2013-02-14 07:57:00,
2013-02-14 03:02:00,40.3,34.8,30.03,NE,47,0.0,4.3,80,0.00,,,0.00,Meteorologica,2013-02-14 08:02:00,
2013-02-14 03:07:00,40.3,34.8,30.03,NE,47,0.0,0.0,80,0.00,,,0.00,Meteorologica,2013-02-14 08:07:00,
2013-02-14 03:12:00,40.3,34.6,30.03,NE,36,0.0,3.4,79,0.00,,,0.00,Meteorologica,2013-02-14 08:12:00,
2013-02-14 03:18:00,40.2,34.2,30.03,West,261,0.0,2.6,79,0.00,,,0.00,Meteorologica,2013-02-14 08:18:00,
2013-02-14 03:23:00,40.5,34.4,30.03,West,272,0.0,5.3,78,0.00,,,0.00,Meteorologica,2013-02-14 08:23:00,
2013-02-14 03:28:00,40.3,34.1,30.03,West,272,0.0,4.0,78,0.00,,,0.00,Meteorologica,2013-02-14 08:28:00,
2013-02-14 03:33:00,40.4,34.0,30.03,West,266,0.8,2.3,77,0.00,,,0.00,Meteorologica,2013-02-14 08:33:00,
2013-02-14 03:38:00,40.4,34.0,30.03,NW,304,0.0,5.1,77,0.00,,,0.00,Meteorologica,2013-02-14 08:38:00,
2013-02-14 03:43:00,40.4,33.6,30.03,NW,307,2.0,2.5,76,0.00,,,0.00,Meteorologica,2013-02-14 08:43:00,
2013-02-14 03:48:00,40.4,33.8,30.02,South,183,0.5,4.7,77,0.00,,,0.00,Meteorologica,2013-02-14 08:48:00,
2013-02-14 03:53:00,40.4,34.1,30.03,West,279,0.0,2.7,78,0.00,,,0.00,Meteorologica,2013-02-14 08:53:00,
2013-02-14 03:58:00,40.4,33.6,30.03,South,170,0.0,4.5,76,0.00,,,0.00,Meteorologica,2013-02-14 08:58:00,
2013-02-14 04:03:00,40.3,33.7,30.03,North,4,1.6,5.4,76,0.00,,,0.00,Meteorologica,2013-02-14 09:03:00,
2013-02-14 04:08:00,40.3,33.9,30.03,WNW,288,0.8,4.0,77,0.00,,,0.00,Meteorologica,2013-02-14 09:08:00,
2013-02-14 04:13:00,40.3,33.8,30.03,WNW,286,0.8,3.5,77,0.00,,,0.00,Meteorologica,2013-02-14 09:13:00,
2013-02-14 04:18:00,40.3,33.8,30.03,West,279,0.0,2.5,77,0.00,,,0.00,Meteorologica,2013-02-14 09:18:00,
2013-02-14 04:24:00,40.2,33.5,30.03,West,279,0.0,0.0,76,0.00,,,0.00,Meteorologica,2013-02-14 09:24:00,
2013-02-14 04:29:00,40.3,33.7,30.03,West,279,0.0,0.0,77,0.00,,,0.00,Meteorologica,2013-02-14 09:29:00,
2013-02-14 04:34:00,40.2,33.7,30.03,West,279,0.0,0.0,77,0.00,,,0.00,Meteorologica,2013-02-14 09:34:00,
2013-02-14 04:39:00,40.1,33.2,30.03,West,276,0.0,3.9,76,0.00,,,0.00,Meteorologica,2013-02-14 09:39:00,
2013-02-14 04:44:00,40.1,33.1,30.03,North,354,0.0,3.5,75,0.00,,,0.00,Meteorologica,2013-02-14 09:44:00,
2013-02-14 04:49:00,40.0,32.9,30.03,WNW,282,0.0,4.0,75,0.00,,,0.00,Meteorologica,2013-02-14 09:49:00,
2013-02-14 04:54:00,40.0,32.9,30.03,WSW,244,0.3,2.8,75,0.00,,,0.00,Meteorologica,2013-02-14 09:54:00,
2013-02-14 04:59:00,40.1,33.0,30.03,WSW,254,0.0,0.9,75,0.00,,,0.00,Meteorologica,2013-02-14 09:59:00,
2013-02-14 05:04:00,40.2,33.2,30.03,WSW,254,0.0,0.0,75,0.00,,,0.00,Meteorologica,2013-02-14 10:04:00,
2013-02-14 05:09:00,39.9,33.0,30.03,WSW,254,0.0,0.0,76,0.00,,,0.00,Meteorologica,2013-02-14 10:09:00,
2013-02-14 05:15:00,39.9,33.2,30.03,WSW,254,0.0,0.0,76,0.00,,,0.00,Meteorologica,2013-02-14 10:15:00,
2013-02-14 05:20:00,39.9,33.1,30.03,West,272,0.9,2.3,76,0.00,,,0.00,Meteorologica,2013-02-14 10:20:00,
2013-02-14 05:25:00,39.8,33.0,30.03,WSW,252,0.4,2.8,76,0.00,,,0.00,Meteorologica,2013-02-14 10:25:00,
2013-02-14 05:30:00,39.6,32.9,30.03,West,265,0.1,0.6,76,0.00,,,0.00,Meteorologica,2013-02-14 10:30:00,
2013-02-14 05:35:00,39.6,32.8,30.03,WNW,303,0.0,3.7,76,0.00,,,0.00,Meteorologica,2013-02-14 10:35:00,
2013-02-14 05:40:00,39.7,33.0,30.03,WNW,303,0.0,0.0,76,0.00,,,0.00,Meteorologica,2013-02-14 10:40:00,
2013-02-14 05:45:00,39.5,32.8,30.03,WNW,303,0.0,0.0,76,0.00,,,0.00,Meteorologica,2013-02-14 10:45:00,
2013-02-14 05:50:00,39.6,32.9,30.03,East,79,1.5,1.8,76,0.00,,,0.00,Meteorologica,2013-02-14 10:50:00,
2013-02-14 05:55:00,39.5,32.7,30.03,NNW,337,1.1,4.7,76,0.00,,,0.00,Meteorologica,2013-02-14 10:55:00,
2013-02-14 06:00:00,39.5,32.8,30.03,NE,51,0.4,1.9,76,0.00,,,0.00,Meteorologica,2013-02-14 11:00:00,
2013-02-14 06:05:00,39.5,32.7,30.03,NE,45,1.7,2.5,76,0.00,,,0.00,Meteorologica,2013-02-14 11:05:00,
2013-02-14 06:10:00,39.3,32.1,30.03,NE,42,0.0,2.9,74,0.00,,,0.00,Meteorologica,2013-02-14 11:10:00,
2013-02-14 06:15:00,39.3,32.2,30.03,NE,36,0.0,1.3,75,0.00,,,0.00,Meteorologica,2013-02-14 11:15:00,
2013-02-14 06:21:00,39.2,32.4,30.03,NE,36,0.0,0.0,76,0.00,,,0.00,Meteorologica,2013-02-14 11:21:00,
2013-02-14 06:26:00,39.1,32.5,30.03,NNE,22,0.2,0.0,76,0.00,,,0.00,Meteorologica,2013-02-14 11:26:00,
2013-02-14 06:31:00,39.0,32.2,30.04,NNE,22,0.0,0.7,76,0.00,,,0.00,Meteorologica,2013-02-14 11:31:00,
2013-02-14 06:36:00,38.9,32.2,30.04,NNE,22,0.0,0.0,76,0.00,,,0.00,Meteorologica,2013-02-14 11:36:00,
2013-02-14 06:41:00,38.6,32.0,30.04,NNE,22,0.0,0.0,76,0.00,,,0.00,Meteorologica,2013-02-14 11:41:00,
2013-02-14 06:46:00,38.5,32.1,30.04,NNE,22,0.0,0.0,77,0.00,,,0.00,Meteorologica,2013-02-14 11:46:00,
2013-02-14 06:51:00,38.3,32.2,30.05,NNE,22,0.0,0.0,78,0.00,,,0.00,Meteorologica,2013-02-14 11:51:00,
2013-02-14 06:56:00,38.2,32.3,30.05,NNE,22,0.0,0.0,78,0.00,,,0.00,Meteorologica,2013-02-14 11:56:00,
2013-02-14 07:01:00,38.0,32.2,30.06,NNE,22,0.0,0.0,79,0.00,,,0.00,Meteorologica,2013-02-14 12:01:00,
2013-02-14 07:06:00,37.8,32.0,30.06,NNE,22,0.0,0.0,79,0.00,,,0.00,Meteorologica,2013-02-14 12:06:00,
2013-02-14 07:11:00,37.8,32.1,30.06,NNE,22,0.0,0.0,79,0.00,,,0.00,Meteorologica,2013-02-14 12:11:00,
2013-02-14 07:16:00,37.5,32.1,30.06,NNE,22,0.0,0.0,80,0.00,,,0.00,Meteorologica,2013-02-14 12:16:00,
2013-02-14 07:21:00,37.1,31.9,30.06,NNE,22,0.0,0.0,81,0.00,,,0.00,Meteorologica,2013-02-14 12:21:00,
2013-02-14 07:26:00,37.0,32.1,30.06,NNE,22,0.0,0.0,82,0.00,,,0.00,Meteorologica,2013-02-14 12:26:00,
2013-02-14 07:31:00,36.7,32.0,30.06,NNE,22,0.0,0.0,83,0.00,,,0.00,Meteorologica,2013-02-14 12:31:00,
2013-02-14 07:36:00,36.5,32.0,30.07,NNE,22,0.0,0.0,83,0.00,,,0.00,Meteorologica,2013-02-14 12:36:00,
2013-02-14 07:41:00,36.3,32.0,30.07,NNE,22,0.0,0.0,84,0.00,,,0.00,Meteorologica,2013-02-14 12:41:00,
2013-02-14 07:46:00,36.2,31.9,30.07,NNE,22,0.0,0.0,84,0.00,,,0.00,Meteorologica,2013-02-14 12:46:00,
2013-02-14 07:51:00,36.0,32.0,30.07,NNE,22,0.0,0.0,85,0.00,,,0.00,Meteorologica,2013-02-14 12:51:00,
2013-02-14 07:56:00,35.9,32.0,30.07,NNE,22,0.0,0.0,85,0.00,,,0.00,Meteorologica,2013-02-14 12:56:00,
2013-02-14 08:01:00,35.9,32.2,30.07,NNE,22,0.0,0.0,86,0.00,,,0.00,Meteorologica,2013-02-14 13:01:00,
2013-02-14 08:06:00,35.7,32.3,30.08,NNE,22,0.0,0.0,87,0.00,,,0.00,Meteorologica,2013-02-14 13:06:00,
2013-02-14 08:11:00,35.7,32.5,30.08,NNE,22,0.0,0.0,88,0.00,,,0.00,Meteorologica,2013-02-14 13:11:00,
2013-02-14 08:16:00,35.6,32.5,30.08,NNE,22,0.0,0.0,88,0.00,,,0.00,Meteorologica,2013-02-14 13:16:00,
2013-02-14 08:21:00,35.4,32.3,30.09,NNE,22,0.0,0.0,88,0.00,,,0.00,Meteorologica,2013-02-14 13:21:00,
2013-02-14 08:26:00,35.4,32.6,30.09,NNE,22,0.0,0.0,89,0.00,,,0.00,Meteorologica,2013-02-14 13:26:00,
2013-02-14 08:31:00,35.7,33.0,30.09,NNE,22,0.0,0.0,90,0.00,,,0.00,Meteorologica,2013-02-14 13:31:00,
2013-02-14 08:36:00,36.1,33.8,30.09,NNE,22,0.0,0.0,91,0.00,,,0.00,Meteorologica,2013-02-14 13:36:00,
2013-02-14 08:41:00,36.3,33.6,30.09,NE,49,1.3,1.7,89,0.00,,,0.00,Meteorologica,2013-02-14 13:41:00,
2013-02-14 08:46:00,36.7,33.4,30.09,WNW,297,2.2,2.7,87,0.00,,,0.00,Meteorologica,2013-02-14 13:46:00,
2013-02-14 08:51:00,37.2,33.3,30.09,WNW,287,1.1,3.3,85,0.00,,,0.00,Meteorologica,2013-02-14 13:51:00,
2013-02-14 08:56:00,37.4,33.3,30.09,WNW,293,0.0,2.7,85,0.00,,,0.00,Meteorologica,2013-02-14 13:56:00,
2013-02-14 09:01:00,37.8,33.4,30.09,WNW,293,0.0,0.0,84,0.00,,,0.00,Meteorologica,2013-02-14 14:01:00,
2013-02-14 09:06:00,38.2,33.2,30.09,WNW,296,1.4,2.3,82,0.00,,,0.00,Meteorologica,2013-02-14 14:06:00,
2013-02-14 09:11:00,38.4,32.5,30.10,West,271,0.0,2.5,78,0.00,,,0.00,Meteorologica,2013-02-14 14:11:00,
2013-02-14 09:16:00,39.0,32.7,30.10,WNW,296,0.6,3.7,77,0.00,,,0.00,Meteorologica,2013-02-14 14:16:00,
2013-02-14 09:21:00,39.2,32.1,30.10,NW,306,1.7,3.7,75,0.00,,,0.00,Meteorologica,2013-02-14 14:21:00,
2013-02-14 09:26:00,39.6,32.9,30.10,NW,316,1.1,4.9,76,0.00,,,0.00,Meteorologica,2013-02-14 14:26:00,
2013-02-14 09:31:00,40.1,33.1,30.10,West,275,0.4,3.7,75,0.00,,,0.00,Meteorologica,2013-02-14 14:31:00,
2013-02-14 09:36:00,40.3,33.2,30.10,WNW,284,1.4,3.3,75,0.00,,,0.00,Meteorologica,2013-02-14 14:36:00,
2013-02-14 09:41:00,40.5,32.8,30.09,West,266,0.2,3.5,73,0.00,,,0.00,Meteorologica,2013-02-14 14:41:00,
2013-02-14 09:46:00,40.9,33.7,30.09,East,95,0.1,2.5,75,0.00,,,0.00,Meteorologica,2013-02-14 14:46:00,
2013-02-14 09:51:00,41.3,33.3,30.09,East,79,2.3,3.5,72,0.00,,,0.00,Meteorologica,2013-02-14 14:51:00,
2013-02-14 09:56:00,41.7,33.8,30.09,ENE,57,2.6,3.4,73,0.00,,,0.00,Meteorologica,2013-02-14 14:56:00,
2013-02-14 10:01:00,41.9,33.8,30.09,NNE,33,0.9,3.6,72,0.00,,,0.00,Meteorologica,2013-02-14 15:01:00,
2013-02-14 10:06:00,42.4,34.5,30.09,WSW,256,3.0,7.4,73,0.00,,,0.00,Meteorologica,2013-02-14 15:06:00,
2013-02-14 10:11:00,42.6,33.6,30.09,WSW,245,0.4,5.8,70,0.00,,,0.00,Meteorologica,2013-02-14 15:11:00,
2013-02-14 10:16:00,42.8,34.1,30.09,North,2,1.4,2.5,70,0.00,,,0.00,Meteorologica,2013-02-14 15:16:00,
2013-02-14 10:21:00,43.1,34.8,30.09,SSW,195,1.9,2.2,72,0.00,,,0.00,Meteorologica,2013-02-14 15:21:00,
2013-02-14 10:26:00,43.2,34.7,30.09,WNW,289,1.4,5.1,71,0.00,,,0.00,Meteorologica,2013-02-14 15:26:00,
2013-02-14 10:31:00,43.3,34.7,30.08,WNW,299,2.2,4.8,71,0.00,,,0.00,Meteorologica,2013-02-14 15:31:00,
2013-02-14 10:36:00,43.5,34.9,30.07,WSW,246,3.9,6.8,71,0.00,,,0.00,Meteorologica,2013-02-14 15:36:00,
2013-02-14 10:41:00,43.7,34.9,30.07,SW,226,3.3,7.1,70,0.00,,,0.00,Meteorologica,2013-02-14 15:41:00,
2013-02-14 10:46:00,43.9,34.9,30.07,WNW,297,0.1,4.8,70,0.00,,,0.00,Meteorologica,2013-02-14 15:46:00,
2013-02-14 10:51:00,44.1,35.0,30.07,SSW,207,4.5,4.5,70,0.00,,,0.00,Meteorologica,2013-02-14 15:51:00,
2013-02-14 10:56:00,44.3,35.0,30.07,SSW,200,3.4,7.1,69,0.00,,,0.00,Meteorologica,2013-02-14 15:56:00,
2013-02-14 11:01:00,44.5,35.2,30.07,WNW,302,0.2,7.9,69,0.00,,,0.00,Meteorologica,2013-02-14 16:01:00,
2013-02-14 11:06:00,44.7,34.9,30.07,WSW,241,3.1,4.7,68,0.00,,,0.00,Meteorologica,2013-02-14 16:06:00,
2013-02-14 11:11:00,45.1,35.4,30.07,SSW,209,1.4,6.2,68,0.00,,,0.00,Meteorologica,2013-02-14 16:11:00,
2013-02-14 11:16:00,45.2,35.2,30.07,WNW,293,0.0,5.2,67,0.00,,,0.00,Meteorologica,2013-02-14 16:16:00,
2013-02-14 11:21:00,45.3,35.3,30.07,South,182,1.5,2.3,67,0.00,,,0.00,Meteorologica,2013-02-14 16:21:00,
2013-02-14 11:26:00,45.7,35.2,30.07,ESE,102,2.9,6.6,66,0.00,,,0.00,Meteorologica,2013-02-14 16:26:00,
2013-02-14 11:31:00,46.0,35.1,30.07,East,93,2.9,5.2,65,0.00,,,0.00,Meteorologica,2013-02-14 16:31:00,
2013-02-14 11:36:00,46.3,36.4,30.08,NW,324,3.9,6.1,67,0.00,,,0.00,Meteorologica,2013-02-14 16:36:00,
2013-02-14 11:41:00,46.7,36.0,30.08,NNE,18,0.0,5.2,66,0.00,,,0.00,Meteorologica,2013-02-14 16:41:00,
2013-02-14 11:46:00,47.2,36.6,30.08,SSW,199,3.5,8.4,66,0.00,,,0.00,Meteorologica,2013-02-14 16:46:00,
2013-02-14 11:51:00,47.4,36.5,30.09,SSE,166,1.4,9.8,65,0.00,,,0.00,Meteorologica,2013-02-14 16:51:00,
2013-02-14 11:56:00,47.7,35.9,30.09,SW,221,2.0,6.3,63,0.00,,,0.00,Meteorologica,2013-02-14 16:56:00,
2013-02-14 12:01:00,48.0,36.3,30.09,SSW,194,3.1,6.8,63,0.00,,,0.00,Meteorologica,2013-02-14 17:01:00,
2013-02-14 12:06:00,48.2,36.5,30.09,SSW,197,4.7,9.3,63,0.00,,,0.00,Meteorologica,2013-02-14 17:06:00,
2013-02-14 12:11:00,48.3,36.3,30.09,East,92,2.3,7.2,62,0.00,,,0.00,Meteorologica,2013-02-14 17:11:00,
2013-02-14 12:16:00,48.5,36.7,30.09,South,179,3.7,4.1,63,0.00,,,0.00,Meteorologica,2013-02-14 17:16:00,
2013-02-14 12:21:00,48.7,36.8,30.08,NW,310,2.8,7.3,63,0.00,,,0.00,Meteorologica,2013-02-14 17:21:00,
2013-02-14 12:26:00,49.1,37.3,30.08,South,174,6.2,7.5,63,0.00,,,0.00,Meteorologica,2013-02-14 17:26:00,
2013-02-14 12:32:00,49.6,37.3,30.08,SE,135,3.4,9.6,62,0.00,,,0.00,Meteorologica,2013-02-14 17:32:00,
2013-02-14 12:37:00,49.9,37.2,30.08,SSW,194,3.4,6.0,61,0.00,,,0.00,Meteorologica,2013-02-14 17:37:00,
2013-02-14 12:42:00,50.0,37.1,30.07,South,187,1.9,8.6,60,0.00,,,0.00,Meteorologica,2013-02-14 17:42:00,
2013-02-14 12:47:00,50.1,37.0,30.07,SSE,148,2.2,8.6,60,0.00,,,0.00,Meteorologica,2013-02-14 17:47:00,
2013-02-14 12:52:00,50.2,37.4,30.07,West,271,3.3,6.8,61,0.00,,,0.00,Meteorologica,2013-02-14 17:52:00,
2013-02-14 12:57:00,50.3,37.6,30.07,SSW,204,2.3,7.7,61,0.00,,,0.00,Meteorologica,2013-02-14 17:57:00,
2013-02-14 13:02:00,50.6,37.5,30.06,SW,226,6.3,7.4,60,0.00,,,0.00,Meteorologica,2013-02-14 18:02:00,
2013-02-14 13:07:00,50.8,38.2,30.06,SSE,165,3.9,8.8,61,0.00,,,0.00,Meteorologica,2013-02-14 18:07:00,
2013-02-14 13:12:00,51.0,36.9,30.06,SSW,205,3.5,9.2,58,0.00,,,0.00,Meteorologica,2013-02-14 18:12:00,
2013-02-14 13:17:00,51.3,37.8,30.06,South,172,0.9,8.6,59,0.00,,,0.00,Meteorologica,2013-02-14 18:17:00,
2013-02-14 13:22:00,51.4,37.3,30.05,South,173,0.4,4.8,58,0.00,,,0.00,Meteorologica,2013-02-14 18:22:00,
2013-02-14 13:27:00,51.4,37.7,30.05,SSW,196,4.3,5.7,59,0.00,,,0.00,Meteorologica,2013-02-14 18:27:00,
2013-02-14 13:32:00,51.7,37.6,30.04,SSW,196,3.2,8.6,58,0.00,,,0.00,Meteorologica,2013-02-14 18:32:00,
2013-02-14 13:37:00,52.0,37.7,30.04,SW,219,5.1,10.3,58,0.00,,,0.00,Meteorologica,2013-02-14 18:37:00,
2013-02-14 13:42:00,52.3,37.6,30.04,SSW,208,2.4,7.9,57,0.00,,,0.00,Meteorologica,2013-02-14 18:42:00,
2013-02-14 13:47:00,52.3,37.6,30.03,SE,127,2.8,3.8,57,0.00,,,0.00,Meteorologica,2013-02-14 18:47:00,
2013-02-14 13:52:00,52.4,37.9,30.03,ENE,76,2.1,10.2,57,0.00,,,0.00,Meteorologica,2013-02-14 18:52:00,
2013-02-14 13:57:00,52.6,37.1,30.03,SSE,151,1.8,8.4,55,0.00,,,0.00,Meteorologica,2013-02-14 18:57:00,
2013-02-14 14:02:00,52.6,37.6,30.03,SW,224,5.5,6.1,56,0.00,,,0.00,Meteorologica,2013-02-14 19:02:00,
2013-02-14 14:07:00,52.7,37.5,30.03,WSW,237,1.8,8.2,56,0.00,,,0.00,Meteorologica,2013-02-14 19:07:00,
2013-02-14 14:12:00,52.9,37.8,30.03,SSW,193,3.9,4.9,56,0.00,,,0.00,Meteorologica,2013-02-14 19:12:00,
2013-02-14 14:17:00,53.1,37.2,30.03,SW,224,4.8,9.7,54,0.00,,,0.00,Meteorologica,2013-02-14 19:17:00,
2013-02-14 14:22:00,53.4,36.8,30.03,SSW,212,5.0,8.4,53,0.00,,,0.00,Meteorologica,2013-02-14 19:22:00,
2013-02-14 14:27:00,53.6,36.2,30.03,SE,145,2.3,11.3,50,0.00,,,0.00,Meteorologica,2013-02-14 19:27:00,
2013-02-14 14:32:00,53.8,37.4,30.03,South,170,4.4,6.8,53,0.00,,,0.00,Meteorologica,2013-02-14 19:32:00,
2013-02-14 14:37:00,54.0,37.0,30.03,South,186,5.5,8.6,52,0.00,,,0.00,Meteorologica,2013-02-14 19:37:00,
2013-02-14 14:42:00,54.1,36.3,30.04,SSW,206,7.0,9.4,50,0.00,,,0.00,Meteorologica,2013-02-14 19:42:00,
2013-02-14 14:47:00,54.5,36.8,30.03,ENE,70,2.0,11.8,51,0.00,,,0.00,Meteorologica,2013-02-14 19:47:00,
2013-02-14 14:52:00,54.6,36.4,30.03,South,184,4.5,6.4,50,0.00,,,0.00,Meteorologica,2013-02-14 19:52:00,
2013-02-14 14:57:00,54.9,36.5,30.03,SSW,193,5.9,10.5,49,0.00,,,0.00,Meteorologica,2013-02-14 19:57:00,
2013-02-14 15:02:00,55.2,36.8,30.02,SSE,167,3.9,10.6,49,0.00,,,0.00,Meteorologica,2013-02-14 20:02:00,
2013-02-14 15:07:00,55.4,36.8,30.02,SSW,206,6.6,9.4,49,0.00,,,0.00,Meteorologica,2013-02-14 20:07:00,
2013-02-14 15:12:00,55.7,36.3,30.02,West,271,3.9,12.6,48,0.00,,,0.00,Meteorologica,2013-02-14 20:12:00,
2013-02-14 15:17:00,55.6,36.1,30.02,WSW,248,3.6,9.7,47,0.00,,,0.00,Meteorologica,2013-02-14 20:17:00,
2013-02-14 15:22:00,55.8,36.5,30.01,SW,220,3.2,9.9,48,0.00,,,0.00,Meteorologica,2013-02-14 20:22:00,
2013-02-14 15:27:00,55.9,36.4,30.01,South,186,6.4,10.8,47,0.00,,,0.00,Meteorologica,2013-02-14 20:27:00,
2013-02-14 15:32:00,55.8,36.6,30.02,SSW,200,1.8,10.7,48,0.00,,,0.00,Meteorologica,2013-02-14 20:32:00,
2013-02-14 15:37:00,55.9,36.5,30.02,South,179,6.9,7.9,48,0.00,,,0.00,Meteorologica,2013-02-14 20:37:00,
2013-02-14 15:42:00,56.1,36.9,30.02,SSW,193,4.8,9.7,48,0.00,,,0.00,Meteorologica,2013-02-14 20:42:00,
2013-02-14 15:47:00,56.3,37.1,30.02,SSW,212,6.5,8.0,48,0.00,,,0.00,Meteorologica,2013-02-14 20:47:00,
2013-02-14 15:52:00,56.3,37.1,30.02,SSW,204,5.8,9.7,48,0.00,,,0.00,Meteorologica,2013-02-14 20:52:00,
2013-02-14 15:57:00,56.5,36.6,30.02,SE,131,3.1,8.9,47,0.00,,,0.00,Meteorologica,2013-02-14 20:57:00,
2013-02-14 16:02:00,56.5,36.5,30.02,SSW,196,3.2,7.8,47,0.00,,,0.00,Meteorologica,2013-02-14 21:02:00,
2013-02-14 16:07:00,56.5,36.6,30.03,South,177,2.6,9.5,47,0.00,,,0.00,Meteorologica,2013-02-14 21:07:00,
2013-02-14 16:12:00,56.6,36.4,30.02,SSE,156,3.9,9.8,46,0.00,,,0.00,Meteorologica,2013-02-14 21:12:00,
2013-02-14 16:17:00,56.6,35.9,30.02,SE,145,4.3,9.1,45,0.00,,,0.00,Meteorologica,2013-02-14 21:17:00,
2013-02-14 16:22:00,56.6,35.9,30.03,SSE,158,6.2,7.4,45,0.00,,,0.00,Meteorologica,2013-02-14 21:22:00,
2013-02-14 17:00:00,56.4,35.5,30.02,SSW,199,4.3,8.7,45,0.00,,,0.00,Meteorologica,2013-02-14 22:00:00,
2013-02-14 17:05:00,56.4,35.8,30.02,East,94,1.1,8.2,46,0.00,,,0.00,Meteorologica,2013-02-14 22:05:00,
2013-02-14 17:10:00,56.3,35.7,30.02,SE,145,2.6,6.8,45,0.00,,,0.00,Meteorologica,2013-02-14 22:10:00,
2013-02-14 17:15:00,56.2,35.2,30.02,South,179,4.9,7.4,45,0.00,,,0.00,Meteorologica,2013-02-14 22:15:00,
2013-02-14 17:20:00,56.0,35.2,30.01,West,262,4.3,8.1,45,0.00,,,0.00,Meteorologica,2013-02-14 22:20:00,
2013-02-14 17:25:00,55.9,35.3,30.01,SSW,203,3.9,9.1,46,0.00,,,0.00,Meteorologica,2013-02-14 22:25:00,
2013-02-14 17:30:00,55.7,35.3,30.01,SW,222,3.0,7.8,46,0.00,,,0.00,Meteorologica,2013-02-14 22:30:00,
2013-02-14 17:35:00,55.6,35.2,30.01,SW,235,3.8,6.9,46,0.00,,,0.00,Meteorologica,2013-02-14 22:35:00,
2013-02-14 17:40:00,55.4,35.4,30.02,South,183,1.5,6.1,46,0.00,,,0.00,Meteorologica,2013-02-14 22:40:00,
2013-02-14 17:45:00,55.3,35.2,30.02,WSW,239,4.0,8.2,46,0.00,,,0.00,Meteorologica,2013-02-14 22:45:00,
2013-02-14 17:50:00,55.2,35.0,30.02,SSW,196,2.1,6.8,46,0.00,,,0.00,Meteorologica,2013-02-14 22:50:00,
2013-02-14 17:55:00,55.0,35.0,30.02,SSW,198,2.6,3.7,46,0.00,,,0.00,Meteorologica,2013-02-14 22:55:00,
2013-02-14 18:00:00,54.8,35.1,30.02,SSW,194,1.3,4.9,47,0.00,,,0.00,Meteorologica,2013-02-14 23:00:00,
2013-02-14 18:05:00,54.6,35.0,30.02,WSW,258,2.9,5.0,47,0.00,,,0.00,Meteorologica,2013-02-14 23:05:00,
2013-02-14 18:10:00,54.5,35.3,30.02,WSW,247,0.0,4.3,48,0.00,,,0.00,Meteorologica,2013-02-14 23:10:00,
2013-02-14 18:15:00,54.1,35.2,30.02,WSW,247,0.0,0.0,48,0.00,,,0.00,Meteorologica,2013-02-14 23:15:00,
2013-02-14 18:20:00,53.9,35.5,30.02,WSW,247,0.0,0.0,49,0.00,,,0.00,Meteorologica,2013-02-14 23:20:00,
2013-02-14 18:25:00,53.6,35.4,30.03,WSW,247,0.0,0.0,50,0.00,,,0.00,Meteorologica,2013-02-14 23:25:00,
2013-02-14 18:30:00,53.3,35.5,30.03,WSW,247,0.0,0.0,50,0.00,,,0.00,Meteorologica,2013-02-14 23:30:00,
2013-02-14 18:35:00,53.0,35.6,30.03,WSW,247,0.0,0.0,51,0.00,,,0.00,Meteorologica,2013-02-14 23:35:00,
2013-02-14 18:40:00,52.8,35.7,30.03,WSW,247,0.0,0.0,52,0.00,,,0.00,Meteorologica,2013-02-14 23:40:00,
2013-02-14 18:46:00,52.2,35.5,30.03,WSW,247,0.0,0.0,52,0.00,,,0.00,Meteorologica,2013-02-14 23:46:00,
2013-02-14 18:51:00,51.9,35.6,30.03,WSW,247,0.0,0.0,53,0.00,,,0.00,Meteorologica,2013-02-14 23:51:00,
2013-02-14 18:56:00,51.4,35.4,30.03,WSW,247,0.0,0.0,54,0.00,,,0.00,Meteorologica,2013-02-14 23:56:00,
2013-02-14 19:01:00,51.1,35.3,30.03,WSW,247,0.0,0.0,54,0.00,,,0.00,Meteorologica,2013-02-15 00:01:00,
2013-02-14 19:06:00,50.9,35.4,30.03,WSW,247,0.0,0.0,55,0.00,,,0.00,Meteorologica,2013-02-15 00:06:00,
2013-02-14 19:11:00,50.6,35.3,30.04,WSW,247,0.0,0.0,55,0.00,,,0.00,Meteorologica,2013-02-15 00:11:00,
2013-02-14 19:16:00,50.3,35.2,30.04,WSW,247,0.0,0.0,55,0.00,,,0.00,Meteorologica,2013-02-15 00:16:00,
2013-02-14 19:21:00,49.9,35.1,30.04,WSW,247,0.0,0.0,56,0.00,,,0.00,Meteorologica,2013-02-15 00:21:00,
2013-02-14 19:26:00,49.7,35.3,30.04,WSW,247,0.0,0.0,57,0.00,,,0.00,Meteorologica,2013-02-15 00:26:00,
2013-02-14 19:32:00,49.2,35.2,30.04,WSW,247,0.0,0.0,58,0.00,,,0.00,Meteorologica,2013-02-15 00:32:00,
2013-02-14 19:37:00,49.0,35.0,30.04,WSW,247,0.0,0.0,58,0.00,,,0.00,Meteorologica,2013-02-15 00:37:00,
2013-02-14 19:42:00,48.6,34.8,30.04,WSW,247,0.0,0.0,58,0.00,,,0.00,Meteorologica,2013-02-15 00:42:00,
2013-02-14 19:47:00,48.6,35.0,30.04,WSW,247,0.0,0.0,59,0.00,,,0.00,Meteorologica,2013-02-15 00:47:00,
2013-02-14 19:52:00,48.2,34.7,30.04,WSW,247,0.0,0.0,59,0.00,,,0.00,Meteorologica,2013-02-15 00:52:00,
2013-02-14 19:57:00,48.1,35.0,30.04,WSW,247,0.0,0.0,60,0.00,,,0.00,Meteorologica,2013-02-15 00:57:00,
2013-02-14 20:02:00,47.8,35.0,30.04,WSW,247,0.0,0.0,60,0.00,,,0.00,Meteorologica,2013-02-15 01:02:00,
2013-02-14 20:08:00,47.5,34.7,30.05,WSW,247,0.0,0.0,60,0.00,,,0.00,Meteorologica,2013-02-15 01:08:00,
2013-02-14 20:13:00,47.4,34.8,30.04,WSW,247,0.0,0.0,61,0.00,,,0.00,Meteorologica,2013-02-15 01:13:00,
2013-02-14 20:18:00,47.3,35.0,30.04,WSW,247,0.0,0.0,61,0.00,,,0.00,Meteorologica,2013-02-15 01:18:00,
2013-02-14 20:23:00,47.1,35.0,30.04,WSW,247,0.0,0.0,62,0.00,,,0.00,Meteorologica,2013-02-15 01:23:00,
2013-02-14 20:28:00,47.0,35.1,30.05,WSW,247,0.0,0.0,62,0.00,,,0.00,Meteorologica,2013-02-15 01:28:00,
2013-02-14 20:33:00,46.9,35.1,30.05,WSW,247,0.0,0.0,63,0.00,,,0.00,Meteorologica,2013-02-15 01:33:00,
2013-02-14 20:38:00,46.9,35.2,30.05,WSW,247,0.0,0.0,63,0.00,,,0.00,Meteorologica,2013-02-15 01:38:00,
2013-02-14 20:43:00,46.8,35.2,30.05,WSW,247,0.0,0.0,63,0.00,,,0.00,Meteorologica,2013-02-15 01:43:00,
2013-02-14 20:48:00,46.6,35.1,30.05,WSW,247,0.0,0.0,63,0.00,,,0.00,Meteorologica,2013-02-15 01:48:00,
2013-02-14 20:53:00,46.5,35.2,30.05,WSW,247,0.0,0.0,64,0.00,,,0.00,Meteorologica,2013-02-15 01:53:00,
2013-02-14 20:58:00,46.4,35.1,30.05,WSW,247,0.0,0.0,64,0.00,,,0.00,Meteorologica,2013-02-15 01:58:00,
2013-02-14 21:03:00,46.3,35.2,30.05,WSW,247,0.0,0.0,64,0.00,,,0.00,Meteorologica,2013-02-15 02:03:00,
2013-02-14 21:08:00,46.1,35.1,30.05,WSW,247,0.0,0.0,65,0.00,,,0.00,Meteorologica,2013-02-15 02:08:00,
2013-02-14 22:00:00,45.2,35.1,30.05,South,173,0.0,0.5,67,0.00,,,0.00,Meteorologica,2013-02-15 03:00:00,
2013-02-14 22:05:00,45.1,35.1,30.05,South,173,0.0,0.0,67,0.00,,,0.00,Meteorologica,2013-02-15 03:05:00,
2013-02-14 22:10:00,45.0,35.2,30.05,SSE,165,1.0,2.3,68,0.00,,,0.00,Meteorologica,2013-02-15 03:10:00,
2013-02-14 22:15:00,44.9,35.1,30.05,SSW,204,1.7,3.5,68,0.00,,,0.00,Meteorologica,2013-02-15 03:15:00,
2013-02-14 22:20:00,45.0,35.2,30.05,SSW,210,0.0,5.1,68,0.00,,,0.00,Meteorologica,2013-02-15 03:20:00,
2013-02-14 22:25:00,44.8,35.1,30.05,SSW,213,2.0,4.3,68,0.00,,,0.00,Meteorologica,2013-02-15 03:25:00,
2013-02-14 22:30:00,44.9,35.2,30.06,SW,221,2.0,3.0,68,0.00,,,0.00,Meteorologica,2013-02-15 03:30:00,
2013-02-14 22:35:00,44.9,35.3,30.06,SW,221,1.2,2.7,68,0.00,,,0.00,Meteorologica,2013-02-15 03:35:00,
2013-02-14 22:40:00,44.8,35.2,30.06,SW,214,1.1,2.4,68,0.00,,,0.00,Meteorologica,2013-02-15 03:40:00,
2013-02-14 22:45:00,44.8,35.2,30.06,SSW,194,0.4,2.3,68,0.00,,,0.00,Meteorologica,2013-02-15 03:45:00,
2013-02-14 22:50:00,44.5,35.0,30.06,SSW,194,0.0,1.7,68,0.00,,,0.00,Meteorologica,2013-02-15 03:50:00,
2013-02-14 22:55:00,44.7,35.2,30.06,SSW,194,0.0,0.0,69,0.00,,,0.00,Meteorologica,2013-02-15 03:55:00,
2013-02-14 23:01:00,44.5,35.1,30.06,SSW,194,0.0,0.0,69,0.00,,,0.00,Meteorologica,2013-02-15 04:01:00,
2013-02-14 23:06:00,44.4,35.1,30.06,SSW,194,0.0,0.0,69,0.00,,,0.00,Meteorologica,2013-02-15 04:06:00,
2013-02-14 23:11:00,44.2,35.0,30.06,SSW,194,0.0,0.0,69,0.00,,,0.00,Meteorologica,2013-02-15 04:11:00,
2013-02-14 23:16:00,44.2,35.2,30.06,SSW,194,0.0,0.0,70,0.00,,,0.00,Meteorologica,2013-02-15 04:16:00,
2013-02-14 23:21:00,44.0,35.1,30.06,South,191,1.1,1.6,70,0.00,,,0.00,Meteorologica,2013-02-15 04:21:00,
2013-02-14 23:26:00,43.9,35.2,30.06,SSW,208,0.0,1.6,71,0.00,,,0.00,Meteorologica,2013-02-15 04:26:00,
2013-02-14 23:31:00,43.6,35.0,30.06,SSW,208,0.0,0.0,71,0.00,,,0.00,Meteorologica,2013-02-15 04:31:00,
2013-02-14 23:37:00,43.5,34.8,30.06,SSW,208,0.0,0.0,71,0.00,,,0.00,Meteorologica,2013-02-15 04:37:00,
2013-02-14 23:42:00,43.5,34.9,30.06,SSW,208,0.0,0.0,71,0.00,,,0.00,Meteorologica,2013-02-15 04:42:00,
2013-02-14 23:47:00,43.3,34.9,30.06,SSW,208,0.0,0.0,71,0.00,,,0.00,Meteorologica,2013-02-15 04:47:00,
2013-02-14 23:53:00,43.3,34.9,30.06,SSW,208,0.0,0.0,71,0.00,,,0.00,Meteorologica,2013-02-15 04:53:00,
2013-02-14 23:58:00,43.1,34.8,30.06,SSW,208,0.0,0.0,72,0.00,,,0.00,Meteorologica,2013-02-15 04:58:00,